CAPE
1220 1056 1915 1564 1035 903 938 959 1135 991 1186 1623 1486 1472 1445 1493 1366 1526 1230 989 778 779 733 399 452 379 230 562 542 348 310 626 602 244 66 243 470 578 618 994 530 76 142
708 847 2014 2220 1404 1077 622 742 972 1185 1041 964 1175 1464 1414 1481 1509 1306 1115 1042 829 917 1031 864 607 415 201 443 567 448 279 631 611 594 494 234 511 684 532 830 678 283 360
613 686 670 2309 1838 1292 1166 788 548 907 993 1152 861 1155 1340 1321 1356 1283 1147 1029 877 1146 1174 1060 786 460 396 339 623 670 393 381 382 759 711 115 19 544 522 852 651 337 420
600 696 44 2349 2531 1815 1777 1109 763 477 706 808 811 960 1209 1438 1263 1207 1118 1123 1094 1171 1142 870 647 523 408 322 282 292 376 330 641 594 269 233 63 356 464 386 429 383 333
448 548 482 2333 2673 2273 1957 1460 1073 627 656 949 970 680 1207 1439 1371 1253 1160 1202 1186 1290 1101 904 728 531 368 318 501 354 338 350 294 441 319 352 232 117 265 326 267 274 288
647 573 1389 2489 2331 2381 2237 1727 1297 811 748 1325 876 1242 1044 1495 1439 1320 1295 1333 1314 1238 1175 985 802 606 357 275 507 338 301 517 513 279 421 237 212 261 197 205 354 373 219
1371 1007 1354 2870 2642 2392 2405 2088 1618 1143 624 1654 747 1231 1271 1478 1527 1458 1444 1353 1394 1376 1277 1085 756 604 427 355 321 266 248 564 221 256 206 315 206 291 249 184 170 127 113
1356 1335 1341 2795 2909 2821 2456 2090 1920 1526 882 1500 1063 1395 1562 1589 1696 1516 1488 1364 1521 1507 1352 1115 748 477 285 148 108 89 160 508 130 143 165 180 291 260 229 172 99 100 101
1453 1436 1455 1647 2217 2752 2828 2368 1959 1817 1239 972 1255 1719 1509 1702 1747 1507 1394 1396 1599 1540 1412 1208 832 533 240 80 27 20 50 284 57 104 104 93 252 161 165 143 71 77 77
1565 1528 1531 1397 1645 1637 1502 2261 2142 2003 1490 1226 1347 1765 1883 1790 1670 1652 1569 1531 1543 1551 1383 1279 835 580 225 33 2 0 0 70 68 114 133 64 162 144 96 75 34 17 24
1680 1613 1670 1933 1911 1830 1904 1917 1795 1957 2044 1935 1825 1850 1593 1084 1424 1441 1302 1562 1483 1519 1395 1206 831 465 108 1 0 0 45 5 44 76 55 120 80 66 34 22 13 13 8
1644 1511 1192 1483 1729 1779 1690 2012 1733 1658 1169 1403 1051 758 461 570 1020 952 1213 1493 1539 1372 1221 1080 876 431 208 0 0 0 3 2 67 40 41 114 58 41 24 10 13 18 17
1161 1466 1223 1737 1958 1778 1937 2122 2156 2370 1997 1527 1369 1392 1164 893 1084 820 1237 1001 1019 1190 1288 903 715 234 60 14 0 0 3 10 57 24 53 91 50 29 27 39 36 26 33
97 1173 1366 1685 1773 1746 1758 1578 1622 1855 1777 1834 1657 1563 1619 1326 1060 963 905 626 1662 1004 929 1047 807 591 134 17 1 0 1 2 29 0 33 87 56 46 77 62 47 36 27
4 247 887 1409 1328 1209 1461 1013 940 799 1115 1034 1378 1425 1665 1783 1391 1172 1193 996 1124 1123 1199 1183 883 715 168 0 1 0 1 4 2 0 38 85 120 87 71 59 44 19 25
0 25 226 751 1075 725 621 550 471 422 410 597 546 819 1162 1136 910 689 1080 1040 1183 1500 1231 1294 1271 454 57 0 1 2 2 9 0 11 26 57 113 111 72 61 46 25 24
0 0 18 184 702 1046 630 588 1289 1091 1121 550 602 538 457 389 667 665 260 503 832 1018 818 1095 661 353 29 0 0 0 0 3 0 10 47 50 84 107 138 62 46 31 20
0 0 29 121 427 913 482 680 847 778 900 950 942 830 775 681 738 454 397 439 574 592 677 723 455 337 108 16 3 4 3 7 5 4 134 78 92 39 103 128 66 52 41
0 0 9 129 210 290 272 1021 803 589 558 388 177 410 344 489 378 210 452 366 335 306 583 530 402 240 198 25 0 0 0 0 6 36 105 87 79 88 85 112 121 95 58
0 0 0 1 0 36 276 615 498 413 373 258 148 100 184 176 138 121 182 305 330 322 177 166 150 64 47 12 0 1 0 6 27 35 59 75 93 92 84 75 91 86 83
0 0 0 0 0 0 0 38 329 122 53 150 74 59 169 140 147 144 93 160 202 256 131 215 90 15 9 9 1 2 0 5 21 44 87 94 114 89 84 85 93 65 64
0 0 0 0 0 0 0 0 0 0 14 42 32 40 143 111 130 132 93 118 275 277 234 152 23 4 4 10 0 3 7 13 32 62 89 145 122 45 56 51 30 62 51
0 0 0 0 0 0 0 0 0 0 0 4 9 10 136 86 171 130 155 143 226 297 253 114 74 2 4 7 0 1 15 12 44 58 120 142 83 56 35 27 20 32 31
0 0 0 0 0 0 0 0 0 0 1 10 19 18 90 56 78 130 87 127 202 170 199 51 70 58 12 11 14 0 0 0 0 29 68 119 97 58 40 55 15 12 27
0 0 0 0 0 0 0 0 0 0 1 11 23 42 55 72 89 100 42 94 70 262 201 222 196 85 17 9 5 1 0 0 0 1 15 62 81 82 41 38 40 24 9
0 0 0 0 0 0 0 0 0 2 5 6 24 36 55 12 24 6 92 146 105 135 117 133 224 98 38 22 5 0 0 0 0 25 8 26 67 82 31 58 43 18 5
CIN
-96 -110 -13 -15 -41 -45 -22 -13 -1 -1 -2 0 0 0 -1 0 -2 0 0 0 -2 -5 0 -6 -1 -6 -25 -1 0 -1 -7 0 0 -11 -116 -31 -1 0 0 -1 -1 -21 -33
-149 -134 -11 -1 -21 -29 -70 -57 -19 -1 -1 -3 0 0 0 0 0 0 0 -1 0 -4 0 0 0 -2 -30 -1 -1 0 -5 -3 -2 -2 -6 -19 0 0 0 0 0 -2 0
-144 -135 -148 0 -3 -16 -21 -46 -79 -28 -17 -1 -3 0 0 0 0 0 0 -1 -2 -2 0 0 0 0 -2 -6 0 -3 -2 -8 -10 -7 -5 -63 -13 0 0 0 0 0 0
-114 -108 -224 0 0 0 0 -13 -51 -85 -46 -27 -21 -2 -1 0 -1 0 0 -1 -2 -1 0 0 0 0 -1 -6 -4 -10 -6 -14 -6 -4 -7 -15 -34 -1 0 0 0 0 0
-111 -96 -128 -1 0 0 0 -3 -17 -69 -55 -22 -16 -40 -1 0 0 0 0 -1 -3 0 0 0 0 0 -1 -5 -1 -1 -11 -14 -18 -7 -4 -1 -23 -61 -2 0 0 -1 -1
-71 -79 -77 -6 0 0 0 0 -5 -37 -45 -1 -16 -1 -1 0 0 0 0 -1 -3 0 0 0 0 0 -2 -14 0 -9 -20 -5 -4 -12 -2 -7 -20 -6 -8 -11 0 0 -5
-2 -21 -44 -2 0 0 0 0 0 -7 -55 0 -37 -1 0 0 0 0 0 -2 -3 0 0 0 0 0 0 -2 -6 -19 -28 -5 -20 -11 -32 -7 -18 -5 -5 -14 -14 -40 0
-1 -1 -28 0 0 0 0 -1 0 0 -13 0 -2 0 0 0 0 0 0 -2 -1 0 0 0 0 -1 -15 -42 -67 -76 -60 -19 -99 -62 -40 -31 -3 -13 -20 -22 0 0 0
-1 -1 -3 -2 0 -1 0 0 0 0 -3 -1 0 0 -1 0 0 0 -1 -4 -1 0 0 0 0 -1 -36 -78 -148 -178 -144 -38 -129 -87 -105 -110 -8 -70 -83 -96 0 0 0
0 -1 0 -4 0 0 0 -1 0 0 0 0 0 0 0 0 0 0 0 -2 0 0 0 0 0 -2 -31 -130 -158 0 0 -121 -85 -93 -83 0 -45 -72 0 0 -1 -7 -4
0 0 0 -1 -2 -4 -2 -3 -5 0 0 0 0 0 -2 0 0 0 -1 -4 -3 0 0 0 0 -2 -30 -52 0 0 -80 -1 -7 -86 -2 -51 0 0 0 0 0 0 0
0 0 0 -1 0 0 0 0 0 0 0 0 0 -3 -10 -2 -6 -1 -8 -10 -2 0 -1 -1 0 -6 -18 0 0 0 -6 -1 -7 -26 -5 -42 0 0 0 0 0 0 -1
0 0 0 -1 0 0 0 0 0 0 -1 0 0 0 -1 -2 -12 0 -3 -2 0 0 0 0 0 -2 -5 -2 0 0 0 -1 -2 -12 -6 -1 0 0 0 0 0 0 0
-83 0 0 0 -1 -1 0 0 0 -2 -3 -1 -3 0 0 0 -1 -1 -14 -8 -4 0 0 -1 0 -1 -2 -9 -1 0 -1 -1 -3 0 -6 -3 -2 -1 0 0 0 0 0
-44 -25 -1 0 0 0 0 0 -1 -1 -1 0 -2 0 0 -2 0 -1 -10 -3 0 0 -1 -1 0 -3 -2 0 -14 0 0 0 -6 -1 -6 -10 -1 0 0 0 0 0 0
0 -152 -38 0 0 0 -1 -1 -2 -10 -18 -2 -3 0 0 0 -1 0 -1 -1 0 0 -6 0 0 -12 -2 -1 -19 -26 0 -2 0 -5 -5 -1 -6 -2 0 0 0 0 0
0 0 -200 -46 0 0 -1 0 0 0 0 -4 -1 0 0 0 0 0 -5 -1 0 0 0 0 0 -12 -18 0 -5 0 -1 -5 0 -3 -5 -1 -9 -8 0 -1 0 -1 0
0 0 -191 -88 -12 -1 -1 0 -3 -5 -6 -8 -1 -9 -15 0 -1 0 0 0 -1 0 0 0 -1 -8 -17 -49 -29 -35 -4 -4 -3 -4 -14 0 -5 0 -11 -3 0 0 0
0 0 -278 -76 -33 -29 -27 -6 -32 -16 -16 -16 -28 -21 -33 -9 -4 -31 0 -1 -9 -13 -2 0 -4 -12 -5 -48 0 0 0 0 -24 -17 -2 -2 -3 -2 -1 -8 -3 -1 0
0 0 0 -65 0 -124 -36 -12 -46 -34 -31 -30 -82 -134 -56 -40 -24 -2 -27 -1 0 0 -10 -11 -26 -37 -46 -44 0 0 0 -21 -36 -9 -1 -10 -7 -10 -8 -13 -6 -5 0
0 0 0 0 0 0 0 -56 -34 -67 -115 -52 -52 -47 -53 -6 0 0 -5 -13 -28 -5 -18 -6 -13 -70 -38 -15 0 0 0 -15 -40 -39 -27 -16 -9 -14 -16 -19 -3 -10 -6
0 0 0 0 0 0 0 0 0 0 -16 -13 -6 -22 -57 -1 -4 0 -13 -4 -22 -12 0 -7 -44 0 0 -1 -2 0 0 -6 -19 -12 -16 -22 -26 -14 -14 -9 -13 -13 -13
0 0 0 0 0 0 0 0 0 0 0 -1 0 0 0 0 -1 -6 -23 -2 -43 -9 -4 -11 -41 0 0 0 -1 -16 -1 0 -3 -6 -4 -8 -28 -8 -18 -8 -5 -15 -32
0 0 0 0 0 0 0 0 0 0 0 0 0 0 -4 -1 0 -23 -10 -2 -2 -1 -3 -44 -33 -16 -72 -8 0 0 0 0 0 0 -7 -11 -23 -18 -15 -10 -10 -9 -1
0 0 0 0 0 0 0 0 0 0 0 0 0 0 0 0 0 0 -12 -2 -3 -9 0 -1 0 -1 -48 -9 -1 0 0 0 -1 -2 -3 -5 -9 -14 -32 -3 -4 -6 -3
0 0 0 0 0 0 0 0 0 0 0 0 0 0 0 -6 -25 -21 -3 -3 -1 -29 -2 -5 0 -3 -27 -21 -1 0 0 -7 0 -14 -2 -28 -39 -15 -23 -3 -4 -8 -13
Wind_Speed
11 16 15 15 14 13 11 10 8 7 8 9 7 6 6 7 7 7 8 8 8 8 11 11 12 11 11 12 13 13 14 12 14 16 18 16 17 19 21 22 19 19 22
14 17 15 16 15 14 12 11 9 8 7 7 6 6 5 6 6 7 6 6 7 8 10 11 11 11 11 12 13 13 12 10 9 8 14 14 15 18 21 19 20 19 22
14 16 16 13 16 14 13 11 10 8 7 7 6 5 4 5 5 6 6 5 7 8 11 12 12 11 11 12 12 12 10 9 10 13 12 10 15 18 21 20 20 21 23
14 15 15 13 14 14 14 12 10 9 7 7 6 5 4 4 6 6 6 6 8 9 10 11 11 11 12 11 11 11 8 7 7 11 8 11 12 17 20 21 23 23 23
13 13 14 15 12 11 16 13 11 9 8 7 7 6 4 5 7 7 8 8 9 10 11 11 11 11 11 11 11 10 5 6 4 13 13 11 9 16 21 22 21 22 22
12 12 20 15 13 11 12 13 12 9 8 8 6 6 4 5 7 6 8 10 10 10 11 10 10 11 10 10 10 7 7 10 13 11 12 12 12 17 19 20 20 21 23
11 12 15 15 14 12 12 14 12 10 8 8 6 5 6 5 7 7 8 8 10 12 10 10 10 10 9 9 9 6 7 11 11 9 10 10 13 18 19 20 21 22 23
9 10 14 13 13 12 12 13 12 10 9 8 5 6 6 5 8 7 8 9 10 12 12 11 10 10 9 7 7 5 8 11 10 8 9 10 13 19 20 20 21 21 22
9 8 12 13 12 10 10 10 12 12 10 9 6 5 6 5 8 7 7 8 10 10 11 11 10 9 9 7 6 5 6 7 11 7 8 8 14 17 20 21 22 22 23
8 8 9 10 12 12 10 9 10 10 9 9 8 7 7 6 6 7 7 7 9 9 10 10 10 10 8 6 6 3 3 7 13 7 7 7 14 19 19 19 20 21 23
7 8 9 8 7 5 6 10 9 9 9 8 8 7 8 8 10 11 9 10 8 10 10 10 11 11 9 7 4 4 7 1 11 8 7 11 16 18 19 19 20 21 22
11 10 9 10 8 9 8 7 9 8 9 9 9 10 9 6 3 6 9 10 8 9 9 10 12 12 11 7 5 7 5 3 11 9 7 12 15 16 17 19 20 19 20
10 8 9 10 11 9 6 4 4 3 4 6 9 7 7 3 4 7 5 6 6 7 5 7 9 7 9 4 6 4 4 4 8 7 8 10 13 16 17 19 19 20 20
13 13 11 9 8 8 5 6 7 6 5 4 5 7 6 4 5 3 2 3 5 6 8 7 6 6 4 6 7 5 5 4 7 7 7 11 11 16 17 20 20 19 20
11 9 10 10 9 9 9 7 5 5 6 7 7 6 5 3 4 4 3 5 5 5 5 5 8 5 6 5 2 4 6 6 14 6 5 10 12 16 18 19 18 18 19
12 14 11 12 10 9 7 8 4 4 3 5 4 6 9 5 4 5 4 6 5 4 4 6 6 5 6 6 2 4 5 10 12 6 5 7 13 15 17 18 17 17 18
12 11 10 10 10 8 7 5 4 3 5 5 4 3 5 6 5 7 5 6 6 5 6 6 7 7 6 3 5 7 5 9 11 7 7 7 7 15 15 15 17 17 17
15 14 11 9 11 10 8 6 3 5 4 4 7 3 6 4 4 6 5 4 2 3 3 5 6 2 5 5 2 3 3 6 11 8 7 7 5 9 10 14 16 16 17
12 12 12 12 11 10 9 6 5 5 6 5 4 5 7 7 7 5 6 4 4 3 4 5 3 6 6 5 5 6 8 6 4 5 8 7 9 8 7 12 13 14 15
12 12 12 10 11 10 7 8 4 4 5 4 3 4 6 5 6 6 4 5 5 5 4 3 6 4 5 5 6 7 4 4 5 4 7 6 7 9 7 8 6 8 13
13 13 14 13 12 8 7 8 7 7 6 7 6 8 7 7 5 7 5 5 6 7 6 6 3 9 4 6 7 6 4 3 6 4 4 3 4 8 7 6 5 4 5
16 14 13 12 11 8 6 5 5 5 7 6 5 6 10 10 7 8 7 6 7 6 9 8 8 5 2 7 5 3 4 3 3 3 1 4 6 5 7 9 8 9 6
16 15 13 11 10 9 7 4 3 4 3 3 5 7 8 9 8 8 7 6 7 7 6 8 9 6 5 4 8 3 4 3 4 0 4 4 7 6 6 8 6 9 9
13 12 11 10 9 7 8 7 8 6 7 6 7 7 6 8 8 5 7 7 7 6 9 9 9 9 9 9 6 2 1 3 5 4 3 3 5 5 4 2 5 4 4
11 11 10 9 7 6 7 6 6 7 4 3 1 4 7 5 7 8 8 8 7 5 7 10 10 8 9 8 7 2 1 2 3 5 5 4 4 4 2 3 1 3 2
10 11 9 9 8 7 6 6 6 5 5 4 5 4 2 2 1 6 8 5 6 6 8 9 9 9 9 7 5 4 3 3 6 4 5 9 8 6 5 4 4 3 4
Wind_Direction
151 145 164 162 158 153 149 138 121 112 101 102 108 106 98 96 89 110 108 100 92 115 102 95 85 72 64 61 67 63 62 59 66 75 71 54 48 48 45 37 48 55 50
156 149 165 167 159 159 156 148 141 123 127 115 107 105 101 101 103 100 112 103 98 107 101 102 93 78 67 62 61 64 61 44 44 94 98 76 55 53 51 53 45 49 50
161 148 169 168 161 165 161 151 148 146 130 124 123 115 118 124 118 120 125 112 115 117 108 98 91 85 75 68 63 63 54 29 10 63 51 76 65 55 56 52 52 51 50
158 147 170 169 168 171 166 154 151 155 157 152 142 144 142 118 141 141 133 122 126 120 111 102 100 86 71 69 68 69 50 16 22 75 71 49 65 59 59 60 56 50 52
156 153 152 163 175 174 159 157 160 162 164 161 166 170 161 139 153 154 140 130 132 126 115 110 103 95 86 76 70 68 51 359 315 68 63 63 58 67 59 52 58 55 53
156 160 134 158 186 171 169 167 166 169 172 180 179 176 177 143 166 160 147 140 137 130 124 116 107 100 92 87 73 50 11 3 53 64 68 72 72 68 69 63 62 60 54
162 151 149 162 174 174 179 173 171 170 175 178 171 179 183 169 168 163 159 147 141 136 133 126 116 108 96 89 79 51 1 32 59 57 72 66 70 70 67 64 63 63 59
154 158 146 164 178 182 188 186 174 173 179 179 177 199 160 177 161 166 169 159 149 143 144 139 129 121 105 88 77 44 348 360 82 59 68 68 72 73 71 68 63 60 62
150 163 152 174 186 196 195 184 188 180 180 187 180 170 171 170 163 167 174 169 157 152 152 147 137 129 111 100 85 55 346 340 80 59 65 72 69 73 71 72 72 69 65
155 167 173 176 181 191 191 184 193 183 181 188 186 190 178 165 176 178 171 181 168 160 165 151 143 125 127 113 102 112 251 280 92 73 62 77 81 79 76 71 71 68 67
171 186 167 181 200 193 205 178 190 191 183 188 186 200 176 205 173 163 198 158 178 171 167 158 146 131 134 124 131 216 259 76 106 80 79 82 83 81 81 79 74 72 70
187 200 194 190 190 197 214 182 201 185 194 202 197 181 221 203 164 195 151 158 189 185 176 166 152 147 180 154 170 239 244 150 101 100 88 87 89 89 87 84 82 78 76
198 198 210 186 190 194 207 182 196 204 211 209 208 207 243 209 170 213 160 174 189 199 176 176 162 185 206 188 166 204 167 120 103 95 96 104 102 99 92 89 87 88 81
192 190 190 209 181 195 186 206 195 187 201 217 215 200 220 230 229 225 234 246 138 192 195 184 203 212 221 199 183 180 157 146 100 97 101 94 104 106 102 95 89 87 87
202 174 186 193 206 197 199 213 219 202 193 209 182 214 212 212 225 225 250 278 189 202 190 197 207 218 218 190 229 179 149 147 94 105 116 121 119 111 102 100 98 96 91
215 172 187 192 198 203 201 211 246 234 233 247 223 203 197 214 216 228 220 239 225 223 185 196 207 208 193 178 163 287 161 114 107 117 149 127 124 116 110 106 105 101 96
210 209 190 179 178 209 201 194 197 214 253 235 271 251 263 221 235 218 235 228 240 207 202 195 207 211 149 127 5 342 356 116 130 152 141 133 125 111 108 110 106 102 103
213 188 180 183 187 189 198 175 206 213 219 222 214 173 248 244 231 268 238 239 277 270 177 162 164 179 141 154 174 1 343 137 127 168 122 136 136 118 112 119 110 109 106
212 182 187 188 193 191 201 158 204 242 221 219 254 178 217 211 208 224 262 190 142 87 165 164 153 151 156 142 85 49 354 73 60 98 124 141 128 112 115 110 118 115 114
197 200 189 188 197 187 190 170 204 238 238 243 242 237 254 218 212 191 218 215 187 147 124 122 137 135 135 133 90 63 57 12 69 62 114 120 122 123 126 118 121 123 120
192 196 187 186 183 175 197 195 199 221 227 227 201 245 201 250 232 215 197 214 193 160 159 146 149 144 121 138 111 83 38 357 74 73 93 106 152 141 141 134 138 125 121
190 189 190 184 183 183 204 222 229 214 220 232 224 217 233 214 192 194 210 212 197 189 175 149 153 128 105 171 143 121 134 69 42 29 319 214 203 163 144 170 180 162 152
192 181 184 179 185 185 193 198 211 240 233 219 234 233 220 214 189 237 200 220 205 193 182 160 157 155 144 186 172 136 138 168 132 161 228 239 234 171 179 213 127 175 136
190 164 177 174 179 190 177 201 205 212 220 216 204 217 207 213 201 201 222 219 209 190 174 164 163 163 150 181 181 58 358 136 159 166 232 232 230 230 202 168 146 187 163
167 163 163 165 173 167 182 205 207 221 226 223 181 202 213 202 205 191 218 214 220 195 192 173 174 169 166 183 176 135 141 137 185 156 164 175 216 223 185 168 103 110 153
165 157 155 157 158 166 179 188 209 223 224 217 202 208 160 195 174 213 216 204 189 199 174 180 174 172 172 172 167 143 149 178 185 160 172 191 175 191 185 183 165 179 147